Theta_e
319 313 309 309 298 296 291 293 300 301 302 304 307 310 310 311 311 304 326 338 340 339 342 343 346 347 348 346 344 343 343 342 341 341 344 342 341 339 339 339 342 343 341 344 343 342 341 340 341
314 316 310 303 294 290 290 295 298 300 305 306 307 306 309 310 320 323 328 340 340 339 340 341 343 346 348 347 345 343 343 343 340 340 341 341 341 339 338 338 341 340 338 339 337 339 339 338 339
315 313 304 298 293 291 290 294 300 304 307 306 304 308 310 312 322 324 332 340 340 338 339 339 343 346 347 347 344 343 342 343 341 339 340 340 340 341 341 341 341 338 338 338 337 337 337 336 337
308 304 302 295 292 295 294 298 302 301 302 306 306 306 312 322 325 328 337 338 336 336 338 340 344 346 346 346 344 343 342 342 342 341 340 340 340 342 341 342 341 342 340 338 337 336 334 335 335
305 301 294 292 293 293 296 302 302 300 300 301 304 304 310 325 329 330 336 337 335 335 338 340 342 344 345 346 344 343 342 341 341 340 339 341 340 341 339 339 339 339 336 336 336 334 333 332 332
298 299 290 289 292 294 296 302 302 299 301 300 305 310 313 326 327 328 336 336 336 335 338 339 336 339 342 344 343 342 341 340 340 338 337 338 339 339 338 340 339 337 336 335 335 333 332 330 330
298 296 291 292 293 295 299 301 300 299 300 300 304 307 315 323 327 330 333 336 335 336 336 337 337 336 336 338 339 340 340 339 339 339 338 336 338 338 338 338 338 336 333 333 334 332 330 329 329
300 298 292 292 293 294 299 299 301 300 299 304 307 305 309 322 329 330 335 336 334 334 335 334 333 335 335 336 333 334 336 336 336 334 330 329 331 331 331 330 335 334 333 332 332 331 329 327 327
302 293 291 294 295 296 299 298 299 301 301 302 307 308 318 329 329 327 331 333 333 333 333 333 332 332 333 334 331 330 330 330 329 329 325 323 323 324 325 327 332 333 332 331 330 329 327 325 324
298 293 295 299 298 297 299 299 298 297 299 301 309 322 327 328 325 324 324 326 330 330 332 332 332 330 332 335 331 330 329 327 326 325 324 324 322 323 323 322 325 327 327 328 327 327 325 321 316
298 294 297 298 300 301 299 297 299 297 295 301 308 320 324 324 323 323 323 325 327 332 333 333 332 331 330 330 329 329 327 325 324 323 323 322 322 321 320 318 319 317 317 318 319 318 317 316 315
294 299 297 300 300 301 299 299 298 298 298 302 312 324 323 322 322 324 323 325 327 331 331 333 333 332 330 330 330 329 328 326 324 322 322 321 321 319 318 317 317 316 316 314 315 314 315 315 316
294 295 298 299 300 299 302 299 299 298 298 303 310 323 322 321 321 323 325 325 326 328 331 333 334 332 332 331 329 329 328 328 326 323 322 321 320 319 318 318 317 316 316 315 314 314 314 314 314
298 297 296 297 297 298 298 295 297 298 300 305 311 315 320 321 322 323 325 325 325 327 330 333 334 335 332 331 330 330 330 327 326 324 322 321 321 320 319 318 317 316 315 314 314 314 313 312 312
297 293 295 295 296 295 296 293 294 297 299 299 305 308 314 320 322 322 326 327 328 328 329 332 333 334 334 333 331 330 331 329 325 324 322 321 321 321 319 318 316 315 314 313 313 313 312 310 311
294 292 287 293 295 295 293 289 296 298 298 297 297 298 303 311 318 321 323 325 329 329 329 331 333 334 333 333 333 331 330 329 328 324 323 321 321 321 319 318 316 315 313 312 311 310 308 308 308
289 284 287 290 294 293 291 289 294 296 295 295 293 295 296 298 303 313 318 323 324 329 329 329 330 331 333 333 333 332 330 329 329 327 323 321 320 320 320 318 316 315 312 310 310 307 307 306 306
286 285 286 287 292 292 289 290 293 292 292 293 292 293 293 296 299 303 308 317 322 327 329 329 330 330 331 332 332 332 330 329 329 327 325 322 321 319 319 317 316 313 310 309 307 306 306 306 307
290 288 287 289 292 290 290 289 292 293 291 291 292 293 294 295 298 300 304 309 317 321 327 329 329 329 329 328 329 329 328 329 328 328 326 322 321 319 318 316 314 312 310 308 308 306 306 306 307
289 287 286 290 292 290 287 289 291 292 292 293 294 294 295 295 298 298 298 304 312 318 322 327 329 329 328 328 328 328 328 329 329 328 327 326 322 319 317 315 313 310 308 307 306 305 304 303 304
288 287 286 287 290 290 287 285 288 292 294 295 296 297 296 297 297 298 298 301 306 312 317 321 326 329 329 328 327 323 325 325 326 326 327 326 325 321 318 316 313 310 310 309 307 306 304 300 302
285 291 290 289 284 280 285 278 285 289 290 291 295 295 295 295 295 297 297 297 299 305 309 316 320 324 329 329 326 325 323 322 324 326 327 327 326 323 321 319 317 313 312 310 310 307 305 306 303
288 291 290 288 285 282 282 280 284 286 287 291 292 292 293 293 295 296 296 298 299 299 299 300 302 308 317 327 327 325 323 324 322 322 325 326 326 327 323 320 318 315 313 313 312 307 307 307 306
292 289 288 286 284 278 282 282 281 285 289 289 290 291 292 293 294 296 298 299 300 302 303 303 301 300 302 307 322 324 323 324 323 322 323 324 325 325 323 320 318 317 316 314 312 311 309 307 308
289 285 277 276 276 276 282 280 284 288 291 290 291 291 291 294 295 296 297 299 300 301 304 305 303 300 299 299 308 321 323 324 322 322 322 322 321 319 321 320 318 318 318 316 313 311 309 307 306
287 285 280 274 275 277 280 277 284 290 291 290 291 291 292 294 296 295 298 299 301 301 303 305 305 301 299 299 304 310 317 319 319 322 322 322 321 321 321 319 317 316 315 314 312 309 307 305 304
286 283 288 280 273 276 279 282 288 289 290 288 289 292 293 294 295 296 297 299 299 302 303 304 305 305 306 307 308 310 312 314 315 316 320 319 317 313 315 315 313 311 310 309 308 305 302 302 301
288 291 282 281 272 271 276 277 282 285 288 289 289 289 291 293 294 295 296 297 299 300 303 304 305 304 304 305 306 307 309 311 313 315 314 313 309 308 308 308 308 306 305 305 304 302 300 299 299
286 285 286 285 282 276 273 277 284 288 289 289 289 289 290 293 294 295 295 296 298 298 301 302 304 304 303 303 302 303 303 306 309 309 309 308 306 307 306 305 304 304 303 302 301 300 298 297 297
290 287 288 282 278 278 279 281 288 289 290 290 289 290 290 293 293 294 295 295 296 297 298 300 301 304 305 305 304 303 303 305 306 306 306 306 305 304 304 302 300 299 299 300 299 297 297 296 294
Wind_Speed
8 9 2 5 5 5 2 1 5 4 5 1 4 11 8 3 3 4 4 17 17 12 9 9 12 11 14 13 13 12 12 14 15 15 16 19 16 18 17 17 15 16 18 18 19 19 19 18 17
5 6 5 2 5 3 5 5 7 3 5 5 8 4 6 3 3 7 10 16 17 13 9 9 12 13 13 14 13 12 12 14 15 14 14 18 15 18 18 17 16 17 18 18 19 19 18 17 18
5 2 3 4 3 4 5 2 9 5 7 4 3 5 3 2 3 5 12 18 16 12 9 9 12 12 13 14 13 12 12 12 14 14 13 16 15 16 17 16 16 17 19 19 19 18 16 17 21
3 6 5 3 1 6 7 7 8 5 4 5 5 7 4 4 10 8 17 18 14 11 10 10 11 12 12 14 13 12 12 12 13 13 14 14 15 15 18 18 16 16 20 19 18 17 16 17 18
4 3 1 2 2 1 3 9 7 6 5 2 4 3 4 3 9 13 17 15 16 11 9 9 12 12 11 14 13 12 12 12 13 12 14 15 14 16 16 16 17 17 17 17 16 15 14 14 15
4 4 3 5 3 3 2 9 10 6 5 3 7 7 2 5 10 8 16 14 14 13 9 8 9 10 10 12 13 12 12 11 12 11 13 14 13 14 15 15 17 17 16 15 14 14 13 12 13
4 4 5 3 7 3 5 7 9 8 6 4 7 6 4 5 8 7 13 15 13 13 10 7 7 7 9 11 11 12 12 11 10 10 12 12 11 11 11 12 15 16 13 13 12 12 12 11 12
3 3 2 3 7 5 6 3 5 7 3 2 5 7 6 6 9 8 14 15 13 12 11 8 6 6 5 6 10 10 11 11 11 11 10 10 11 10 10 9 13 14 12 12 11 11 10 9 9
2 3 2 4 7 6 5 4 3 2 7 4 4 3 10 14 10 7 12 11 12 10 12 9 7 7 7 6 6 8 10 10 10 8 9 7 4 5 7 8 12 13 11 10 9 9 8 7 7
4 3 5 3 7 8 8 7 6 5 5 4 6 8 12 12 8 8 10 10 9 11 11 10 10 8 8 7 6 5 6 4 5 5 6 4 5 5 5 7 9 11 10 8 6 5 4 5 3
3 5 5 5 3 10 10 6 5 10 2 7 13 14 9 8 7 9 7 10 7 10 9 13 11 11 9 7 5 3 3 4 4 6 5 4 5 4 3 3 3 3 5 2 1 1 1 1 2
1 3 2 6 7 6 9 8 6 6 6 10 15 18 9 10 10 10 9 8 9 10 8 11 11 12 10 7 7 6 5 4 4 5 7 5 4 4 4 3 4 3 3 3 2 0 1 3 4
4 1 3 3 7 5 7 4 4 6 2 8 13 15 13 10 8 5 6 7 8 10 9 9 8 8 9 10 7 7 6 6 6 5 5 5 5 5 4 4 4 4 3 4 3 2 1 1 2
4 4 1 3 4 4 5 2 2 4 6 9 16 13 13 14 14 8 9 10 10 11 15 9 9 8 8 8 10 7 7 6 7 6 6 7 5 5 5 5 5 4 4 4 4 4 3 2 1
7 4 1 1 2 1 2 2 7 3 8 11 10 9 10 13 13 17 15 15 14 13 13 15 12 9 8 8 8 6 7 6 5 6 7 7 6 6 6 5 4 4 4 5 3 3 2 2 1
6 5 3 4 5 1 4 7 6 8 10 10 10 9 9 11 16 15 15 16 16 15 16 13 13 12 11 9 6 4 5 6 6 5 6 8 7 8 6 5 5 5 4 4 3 3 2 2 3
2 4 4 1 6 3 3 6 4 5 8 9 9 10 9 9 9 11 12 16 15 18 17 16 15 15 13 10 7 4 5 5 6 6 6 8 7 7 6 6 5 6 4 4 3 2 3 3 3
5 5 5 6 6 4 4 8 7 3 4 8 8 8 8 10 13 11 11 10 12 15 17 16 14 14 13 8 6 4 4 4 5 6 7 9 7 7 6 5 6 5 5 4 3 3 3 3 4
5 3 5 1 1 5 8 6 10 8 5 8 9 8 9 10 10 10 10 10 8 10 15 17 16 15 12 10 9 8 9 6 4 6 9 9 8 7 6 5 5 5 6 5 5 3 5 3 2
3 2 4 3 2 4 3 10 10 8 8 9 10 10 11 7 7 8 9 9 10 11 12 15 16 15 14 11 9 8 8 7 6 4 7 10 9 8 7 6 6 6 4 6 6 5 2 2 4
5 5 4 5 3 1 2 8 7 9 7 9 10 11 8 11 11 9 9 11 9 10 10 10 14 16 15 13 8 3 3 2 5 5 5 4 10 10 10 8 6 6 5 6 5 5 6 4 3
6 6 5 7 4 3 4 7 6 6 10 8 15 12 12 10 6 6 8 7 8 7 5 6 8 10 14 14 11 14 11 9 6 6 6 6 7 8 9 10 10 9 7 7 8 6 5 4 4
6 5 8 3 4 3 2 1 9 3 6 11 10 11 12 9 9 7 7 7 5 5 4 2 2 4 5 11 14 12 9 7 4 5 9 8 7 9 9 9 9 10 8 9 9 7 9 7 5
6 8 9 6 5 3 8 8 8 6 8 6 5 9 7 6 6 6 4 5 4 2 1 1 2 4 2 4 7 12 12 11 9 7 7 6 6 7 8 9 10 10 8 8 9 9 9 8 7
7 8 4 2 1 7 3 3 11 5 7 7 7 6 6 6 7 6 6 3 2 3 0 1 2 5 5 5 5 8 11 12 11 8 6 7 5 3 7 10 10 8 9 8 7 8 8 8 7
10 8 8 10 6 5 3 8 7 10 6 2 5 7 6 6 5 5 5 5 3 2 1 1 3 3 4 4 4 3 5 3 4 7 4 6 6 7 6 6 5 6 6 6 7 4 4 5 5
6 7 6 7 3 4 6 6 9 7 7 4 6 6 7 6 5 6 4 4 4 4 2 3 4 5 6 4 4 4 5 6 5 4 4 4 4 4 5 5 5 4 4 4 5 3 4 4 4
8 8 2 4 4 4 5 5 7 4 10 7 8 10 7 5 7 6 6 6 3 4 4 4 5 5 3 4 4 4 4 4 5 5 5 5 5 4 5 5 5 4 4 4 4 3 3 4 3
5 5 4 6 7 6 1 8 8 11 9 10 11 8 10 10 10 9 7 6 6 4 5 4 4 5 4 4 3 5 4 4 6 5 4 4 5 5 5 5 5 5 5 5 4 4 4 3 1
7 8 14 7 5 2 4 12 1 6 5 9 9 9 8 7 7 7 7 7 5 4 4 5 4 4 4 3 4 5 5 6 6 5 5 5 5 5 5 5 5 5 4 4 4 3 2 2 2
Wind_Direction
329 306 275 35 47 63 250 360 116 77 52 24 87 93 112 71 65 169 111 122 128 132 134 129 115 115 117 113 107 104 101 97 95 86 85 89 89 88 82 78 72 75 74 80 80 74 72 71 63
333 314 34 64 82 53 273 165 117 133 126 95 66 118 58 84 51 112 110 129 129 132 133 128 120 121 120 116 113 108 105 104 98 92 85 95 90 91 91 90 84 84 83 79 81 79 74 68 56
325 264 69 108 128 204 178 98 133 126 117 107 86 70 91 95 84 125 126 129 126 129 132 132 124 124 121 124 121 117 109 107 102 104 97 89 89 99 94 95 88 91 92 89 84 79 73 65 59
19 5 8 100 255 285 125 170 134 104 50 73 112 72 51 296 150 149 130 129 123 124 125 131 127 127 122 131 129 122 114 112 105 95 91 100 96 90 90 87 94 93 87 87 85 80 71 65 64
34 63 90 299 233 358 100 144 126 115 137 120 107 117 92 20 128 133 128 130 119 124 128 132 128 128 129 131 130 124 118 113 110 103 95 93 96 98 95 96 92 89 94 93 90 85 75 67 66
16 93 88 236 199 175 133 159 130 134 154 159 87 108 168 143 125 147 128 123 127 130 130 133 130 127 129 138 131 126 119 116 113 107 106 93 93 98 100 109 102 97 95 95 94 87 78 65 63
125 99 214 194 181 174 164 146 128 140 138 179 144 87 169 141 162 147 119 128 129 132 131 128 132 130 124 127 131 127 123 117 110 97 99 95 89 90 88 91 101 102 103 95 92 89 81 65 57
106 110 239 192 190 194 177 107 124 125 156 161 127 151 185 198 164 147 127 133 137 138 134 143 138 132 123 132 131 127 125 120 111 109 106 102 101 99 83 68 93 99 104 98 92 90 83 64 48
56 49 254 249 166 175 159 122 57 117 111 60 35 145 156 152 147 144 129 136 141 150 142 147 149 147 140 133 136 127 129 126 124 124 129 120 115 105 90 91 97 104 98 98 96 98 91 64 41
111 130 241 272 163 165 158 138 138 104 120 61 69 62 128 139 151 165 148 147 152 149 153 159 159 160 154 148 142 139 137 139 142 150 158 126 122 111 103 93 88 90 90 92 102 99 79 29 13
192 203 295 334 21 142 150 147 143 124 206 193 158 151 144 143 157 168 172 154 157 164 155 167 169 163 164 152 154 151 156 153 160 171 165 144 130 122 113 105 98 95 94 90 117 43 336 107 141
219 266 337 350 348 124 148 142 154 163 210 180 166 160 149 160 170 175 173 169 158 159 173 165 173 166 171 157 170 165 170 174 173 185 170 148 140 141 149 142 158 155 163 177 190 186 126 69 64
201 261 30 9 13 43 129 130 160 173 165 131 146 155 161 174 186 197 180 173 168 181 175 174 165 165 158 163 174 175 179 179 177 180 177 158 155 158 158 163 171 185 178 187 169 168 125 84 46
268 146 98 36 16 31 102 90 164 212 145 108 156 168 169 176 187 189 203 198 185 187 200 186 176 174 172 169 178 179 187 178 170 174 176 169 169 161 177 169 182 189 188 180 173 176 172 178 127
144 102 11 238 170 60 40 332 235 215 163 148 172 179 182 191 180 198 199 200 195 193 193 194 189 183 182 184 183 180 180 171 170 172 177 176 177 182 169 166 183 187 185 180 176 177 147 149 191
128 95 126 269 148 101 123 251 254 224 160 178 187 198 200 210 197 200 194 197 193 188 191 188 194 191 192 197 192 176 181 172 176 175 176 185 187 183 174 171 182 181 175 175 168 160 147 182 201
24 176 170 221 191 124 144 245 292 202 181 201 208 210 215 224 222 208 199 194 184 184 184 190 191 196 197 197 201 188 186 176 184 177 182 192 189 191 177 182 180 173 175 174 166 166 161 195 226
167 189 178 183 208 150 170 251 274 305 179 217 239 253 234 220 224 209 197 203 185 180 183 183 188 190 193 192 192 197 190 197 178 186 183 188 194 187 183 185 177 172 164 177 164 163 207 191 202
153 183 188 113 164 141 217 248 250 259 251 243 241 242 251 235 229 216 208 191 193 177 178 184 184 188 182 191 189 198 207 204 202 191 186 182 189 190 187 187 174 172 179 183 178 163 188 212 156
239 178 196 114 171 159 193 260 252 235 225 214 221 230 226 231 243 225 213 193 183 190 184 184 185 181 187 187 192 198 199 215 210 186 196 194 183 187 188 184 191 178 160 171 181 169 158 192 201
198 175 204 154 162 310 29 291 257 256 222 210 227 230 226 216 229 229 207 199 190 193 190 183 183 180 187 188 180 162 152 161 195 208 207 191 197 193 184 185 179 178 177 190 189 178 174 184 223
183 206 137 131 105 200 144 277 280 248 255 209 229 230 233 225 224 231 201 192 189 198 172 183 180 174 185 180 183 189 198 198 202 200 206 207 185 191 197 197 188 186 188 193 202 190 191 169 192
200 159 136 144 116 84 271 43 269 301 271 258 229 229 235 228 205 192 163 132 104 118 135 137 181 181 178 184 187 187 199 197 168 173 193 196 205 199 186 202 187 186 191 204 193 183 202 202 185
147 81 45 41 65 294 218 174 267 211 219 262 230 245 236 165 119 122 114 124 135 129 102 259 229 256 222 176 186 189 193 186 187 187 187 192 199 205 198 185 189 197 193 193 199 201 203 204 211
97 89 43 16 291 222 310 221 246 257 240 211 220 193 170 148 141 155 157 140 119 118 108 240 221 261 264 250 213 188 195 196 197 184 180 182 187 184 197 191 196 201 203 202 190 196 197 194 199
170 167 161 184 198 237 338 237 240 239 247 185 151 159 150 160 171 160 152 149 152 155 139 251 221 242 256 245 238 222 218 205 221 173 173 188 190 195 193 196 181 187 190 191 185 185 190 183 197
209 217 170 104 20 69 222 283 299 250 243 132 127 136 169 175 158 165 158 157 162 154 135 89 83 75 67 80 114 107 166 170 175 169 154 161 154 153 165 170 172 163 162 161 157 164 164 169 178
175 148 202 356 129 253 272 259 228 256 241 208 208 209 199 176 167 170 170 164 158 143 143 121 112 98 83 78 79 79 77 106 109 88 119 130 119 129 132 130 129 128 127 135 138 135 151 171 182
136 176 189 139 161 186 238 258 221 210 208 215 227 195 196 188 187 181 179 175 167 158 155 136 123 116 107 109 119 114 105 96 87 102 112 115 117 127 119 122 118 117 116 110 109 113 129 153 168
213 188 180 170 211 206 149 253 166 177 192 189 208 210 205 191 180 175 174 170 155 158 141 144 144 149 139 131 116 110 102 96 102 105 97 98 95 89 107 107 109 107 96 90 94 120 125 163 211